Time,TemperatureF,DewpointF,PressureIn,WindDirection,WindDirectionDegrees,WindSpeedMPH,WindSpeedGustMPH,Humidity,HourlyPrecipIn,Conditions,Clouds,dailyrainin,SoftwareType,DateUTC
2013-01-03 00:02:00,41.0,36.5,30.20,West,270,4.9,4.9,84,0.00,RA,,0.00,WeatherDisplay:10.37,2013-01-03 05:02:00,
2013-01-03 00:03:00,41.0,36.5,30.20,NNE,22,4.6,4.6,84,0.00,RA,,0.00,WeatherDisplay:10.37,2013-01-03 05:03:00,
2013-01-03 00:08:00,41.0,36.2,30.20,NNE,22,6.3,6.3,83,0.00,RA,,0.00,WeatherDisplay:10.37,2013-01-03 05:08:00,
2013-01-03 00:13:00,41.2,36.4,30.19,NNW,338,6.9,6.9,83,0.00,CLR,,0.00,WeatherDisplay:10.37,2013-01-03 05:13:00,
2013-01-03 00:18:00,41.2,36.4,30.19,SSE,158,8.1,8.1,83,0.00,CLR,,0.00,WeatherDisplay:10.37,2013-01-03 05:18:00,
2013-01-03 00:23:00,41.2,36.4,30.19,East,90,8.1,8.1,83,0.00,CLR,,0.00,WeatherDisplay:10.37,2013-01-03 05:23:00,
2013-01-03 00:28:00,41.2,36.1,30.18,ESE,112,9.2,9.2,82,0.00,CLR,,0.00,WeatherDisplay:10.37,2013-01-03 05:28:00,
2013-01-03 00:34:00,41.2,35.8,30.18,ENE,68,7.1,7.1,81,0.00,CLR,,0.00,WeatherDisplay:10.37,2013-01-03 05:34:00,
2013-01-03 00:39:00,41.2,35.8,30.18,SSW,202,6.9,6.9,81,0.00,CLR,,0.00,WeatherDisplay:10.37,2013-01-03 05:39:00,
2013-01-03 00:44:00,41.2,35.5,30.18,ENE,68,12.7,12.7,80,0.00,CLR,,0.00,WeatherDisplay:10.37,2013-01-03 05:44:00,
2013-01-03 00:49:00,41.2,35.5,30.18,NNE,22,4.6,4.6,80,0.00,CLR,,0.00,WeatherDisplay:10.37,2013-01-03 05:49:00,
2013-01-03 00:54:00,41.2,35.8,30.18,SW,225,6.0,6.0,81,0.00,CLR,,0.00,WeatherDisplay:10.37,2013-01-03 05:54:00,
2013-01-03 00:59:00,41.2,35.8,30.18,NNE,22,8.6,8.6,81,0.00,CLR,,0.00,WeatherDisplay:10.37,2013-01-03 05:59:00,
2013-01-03 01:04:00,41.2,35.8,30.18,NE,45,10.4,10.4,81,0.00,CLR,,0.00,WeatherDisplay:10.37,2013-01-03 06:04:00,
2013-01-03 01:09:00,41.2,35.8,30.18,East,83,9.0,12.0,81,0.00,CLR,,0.00,WeatherDisplay:10.37,2013-01-03 06:09:00,
2013-01-03 01:14:00,41.2,35.8,30.17,East,88,7.0,14.0,81,0.00,CLR,,0.00,WeatherDisplay:10.37,2013-01-03 06:14:00,
2013-01-03 01:19:00,41.2,35.8,30.17,East,91,7.0,8.0,81,0.00,CLR,,0.00,WeatherDisplay:10.37,2013-01-03 06:19:00,
2013-01-03 01:24:00,41.2,35.8,30.17,ENE,72,3.0,8.0,81,0.00,CLR,,0.00,WeatherDisplay:10.37,2013-01-03 06:24:00,
2013-01-03 01:29:00,41.2,35.5,30.16,NE,56,7.0,8.0,80,0.00,CLR,,0.00,WeatherDisplay:10.37,2013-01-03 06:29:00,
2013-01-03 01:34:00,41.2,35.5,30.16,ENE,69,5.0,10.0,80,0.00,CLR,,0.00,WeatherDisplay:10.37,2013-01-03 06:34:00,
2013-01-03 01:39:00,41.2,35.2,30.16,East,81,5.0,10.0,79,0.00,CLR,,0.00,WeatherDisplay:10.37,2013-01-03 06:39:00,
2013-01-03 01:44:00,41.2,35.2,30.16,NE,49,3.0,6.0,79,0.00,CLR,,0.00,WeatherDisplay:10.37,2013-01-03 06:44:00,
2013-01-03 01:49:00,41.0,35.0,30.17,NNE,31,7.0,9.0,79,0.00,CLR,,0.00,WeatherDisplay:10.37,2013-01-03 06:49:00,
2013-01-03 01:54:00,41.0,35.0,30.18,NE,48,6.0,8.0,79,0.00,CLR,,0.00,WeatherDisplay:10.37,2013-01-03 06:54:00,
2013-01-03 01:59:00,41.0,35.0,30.18,NNE,27,6.0,8.0,79,0.00,CLR,,0.00,WeatherDisplay:10.37,2013-01-03 06:59:00,
2013-01-03 02:04:00,41.0,34.7,30.18,ENE,62,7.0,12.0,78,0.00,CLR,,0.00,WeatherDisplay:10.37,2013-01-03 07:04:00,
2013-01-03 02:09:00,41.2,34.9,30.18,East,81,7.0,9.0,78,0.00,CLR,,0.00,WeatherDisplay:10.37,2013-01-03 07:09:00,
2013-01-03 02:14:00,41.2,34.9,30.17,East,83,5.0,7.0,78,0.00,CLR,,0.00,WeatherDisplay:10.37,2013-01-03 07:14:00,
2013-01-03 02:19:00,41.2,34.9,30.17,ENE,58,3.0,8.0,78,0.00,CLR,,0.00,WeatherDisplay:10.37,2013-01-03 07:19:00,
2013-01-03 02:24:00,41.2,34.9,30.17,NE,55,7.0,10.0,78,0.00,CLR,,0.00,WeatherDisplay:10.37,2013-01-03 07:24:00,
2013-01-03 02:29:00,41.2,34.9,30.16,ENE,71,7.0,12.0,78,0.00,CLR,,0.00,WeatherDisplay:10.37,2013-01-03 07:29:00,
2013-01-03 02:34:00,41.2,34.9,30.16,East,80,7.0,9.0,78,0.00,CLR,,0.00,WeatherDisplay:10.37,2013-01-03 07:34:00,
2013-01-03 02:39:00,41.2,34.9,30.16,ENE,71,7.0,14.0,78,0.00,CLR,,0.00,WeatherDisplay:10.37,2013-01-03 07:39:00,
2013-01-03 02:44:00,41.2,34.9,30.16,ENE,65,7.0,14.0,78,0.00,CLR,,0.00,WeatherDisplay:10.37,2013-01-03 07:44:00,
2013-01-03 02:49:00,41.2,34.9,30.15,ENE,71,8.0,14.0,78,0.00,CLR,,0.00,WeatherDisplay:10.37,2013-01-03 07:49:00,
2013-01-03 02:54:00,41.2,35.2,30.15,ENE,77,9.0,12.0,79,0.00,CLR,,0.00,WeatherDisplay:10.37,2013-01-03 07:54:00,
2013-01-03 02:59:00,41.2,35.2,30.15,East,80,7.0,12.0,79,0.00,CLR,,0.00,WeatherDisplay:10.37,2013-01-03 07:59:00,
2013-01-03 03:04:00,41.2,35.2,30.16,ENE,60,6.0,7.0,79,0.00,CLR,,0.00,WeatherDisplay:10.37,2013-01-03 08:04:00,
2013-01-03 03:09:00,41.2,35.2,30.16,NNW,338,8.1,8.1,79,0.00,CLR,,0.00,WeatherDisplay:10.37,2013-01-03 08:09:00,
2013-01-03 03:14:00,41.2,35.2,30.16,ENE,62,7.0,12.0,79,0.00,CLR,,0.00,WeatherDisplay:10.37,2013-01-03 08:14:00,
2013-01-03 03:19:00,41.2,35.2,30.16,East,80,7.0,12.0,79,0.00,CLR,,0.00,WeatherDisplay:10.37,2013-01-03 08:19:00,
2013-01-03 03:24:00,41.2,35.5,30.16,ENE,68,9.2,9.2,80,0.00,CLR,,0.00,WeatherDisplay:10.37,2013-01-03 08:24:00,
2013-01-03 03:29:00,41.2,35.5,30.16,ENE,68,6.0,9.0,80,0.00,CLR,,0.00,WeatherDisplay:10.37,2013-01-03 08:29:00,
2013-01-03 03:34:00,41.2,35.5,30.16,ESE,112,6.9,6.9,80,0.00,CLR,,0.00,WeatherDisplay:10.37,2013-01-03 08:34:00,
2013-01-03 03:39:00,41.2,35.2,30.17,East,90,11.5,11.5,79,0.00,CLR,,0.00,WeatherDisplay:10.37,2013-01-03 08:39:00,
2013-01-03 03:44:00,41.2,35.2,30.17,ENE,68,8.1,8.1,79,0.00,CLR,,0.00,WeatherDisplay:10.37,2013-01-03 08:44:00,
2013-01-03 03:49:00,41.2,35.2,30.16,NE,45,9.2,9.2,79,0.00,CLR,,0.00,WeatherDisplay:10.37,2013-01-03 08:49:00,
2013-01-03 03:55:00,41.2,35.2,30.16,ENE,68,12.7,12.7,79,0.00,CLR,,0.00,WeatherDisplay:10.37,2013-01-03 08:55:00,
2013-01-03 04:00:00,41.2,35.2,30.16,ENE,68,11.0,11.0,79,0.00,CLR,,0.00,WeatherDisplay:10.37,2013-01-03 09:00:00,
2013-01-03 04:05:00,41.2,35.2,30.16,NE,45,26.5,26.5,79,0.00,CLR,,0.00,WeatherDisplay:10.37,2013-01-03 09:05:00,
2013-01-03 04:10:00,41.2,35.2,30.16,East,90,13.3,13.3,79,0.00,CLR,,0.00,WeatherDisplay:10.37,2013-01-03 09:10:00,
2013-01-03 04:15:00,41.2,35.5,30.16,East,90,12.7,12.7,80,0.00,CLR,,0.00,WeatherDisplay:10.37,2013-01-03 09:15:00,
2013-01-03 04:20:00,41.2,35.5,30.16,ENE,68,11.5,11.5,80,0.00,CLR,,0.00,WeatherDisplay:10.37,2013-01-03 09:20:00,
2013-01-03 04:25:00,41.2,35.5,30.16,ENE,68,11.7,11.7,80,0.00,CLR,,0.00,WeatherDisplay:10.37,2013-01-03 09:25:00,
2013-01-03 04:30:00,41.2,35.5,30.16,ENE,68,8.1,8.1,80,0.00,CLR,,0.00,WeatherDisplay:10.37,2013-01-03 09:30:00,
2013-01-03 04:35:00,41.2,35.5,30.16,ESE,112,11.5,11.5,80,0.00,CLR,,0.00,WeatherDisplay:10.37,2013-01-03 09:35:00,
2013-01-03 04:40:00,41.2,35.5,30.15,ENE,68,11.5,11.5,80,0.00,CLR,,0.00,WeatherDisplay:10.37,2013-01-03 09:40:00,
2013-01-03 04:45:00,41.2,35.2,30.15,East,90,13.8,13.8,79,0.00,CLR,,0.00,WeatherDisplay:10.37,2013-01-03 09:45:00,
2013-01-03 04:50:00,41.2,35.2,30.16,ENE,68,9.2,9.2,79,0.00,CLR,,0.00,WeatherDisplay:10.37,2013-01-03 09:50:00,
2013-01-03 04:55:00,41.2,35.2,30.16,ESE,112,11.5,11.5,79,0.00,CLR,,0.00,WeatherDisplay:10.37,2013-01-03 09:55:00,
2013-01-03 05:01:00,41.2,35.2,30.16,East,90,13.8,13.8,79,0.00,CLR,,0.00,WeatherDisplay:10.37,2013-01-03 10:01:00,
2013-01-03 05:06:00,41.2,35.2,30.16,East,90,13.8,13.8,79,0.00,CLR,,0.00,WeatherDisplay:10.37,2013-01-03 10:06:00,
2013-01-03 05:11:00,41.2,35.2,30.16,East,90,11.5,11.5,79,0.00,CLR,,0.00,WeatherDisplay:10.37,2013-01-03 10:11:00,
2013-01-03 05:16:00,41.2,35.2,30.15,NE,45,14.0,14.0,79,0.00,CLR,,0.00,WeatherDisplay:10.37,2013-01-03 10:16:00,
2013-01-03 05:21:00,41.2,35.2,30.15,NNE,22,11.5,11.5,79,0.00,CLR,,0.00,WeatherDisplay:10.37,2013-01-03 10:21:00,
2013-01-03 05:26:00,41.2,34.9,30.16,ENE,68,10.4,11.2,78,0.00,CLR,,0.00,WeatherDisplay:10.37,2013-01-03 10:26:00,
2013-01-03 05:31:00,41.2,34.9,30.16,ENE,68,10.4,10.4,78,0.00,CLR,,0.00,WeatherDisplay:10.37,2013-01-03 10:31:00,
2013-01-03 05:36:00,41.2,34.9,30.16,NNE,22,10.4,10.4,78,0.00,CLR,,0.00,WeatherDisplay:10.37,2013-01-03 10:36:00,
2013-01-03 05:41:00,41.2,34.9,30.16,South,180,6.9,6.9,78,0.00,CLR,,0.00,WeatherDisplay:10.37,2013-01-03 10:41:00,
2013-01-03 05:46:00,41.2,34.9,30.16,NNW,338,13.8,13.8,78,0.00,CLR,,0.00,WeatherDisplay:10.37,2013-01-03 10:46:00,
2013-01-03 05:51:00,41.2,34.9,30.16,ENE,68,11.5,11.5,78,0.00,CLR,,0.00,WeatherDisplay:10.37,2013-01-03 10:51:00,
2013-01-03 05:57:00,41.2,34.9,30.16,NE,45,15.6,15.6,78,0.00,CLR,,0.00,WeatherDisplay:10.37,2013-01-03 10:57:00,
2013-01-03 06:02:00,41.2,34.5,30.16,NE,45,10.4,10.4,77,0.00,CLR,,0.00,WeatherDisplay:10.37,2013-01-03 11:02:00,
2013-01-03 06:07:00,41.2,34.5,30.16,NNE,22,9.2,9.2,77,0.00,CLR,,0.00,WeatherDisplay:10.37,2013-01-03 11:07:00,
2013-01-03 06:12:00,41.2,34.5,30.16,NNE,22,9.2,9.2,77,0.00,CLR,,0.00,WeatherDisplay:10.37,2013-01-03 11:12:00,
2013-01-03 06:17:00,41.2,34.5,30.16,East,90,13.8,13.8,77,0.00,FEW,,0.00,WeatherDisplay:10.37,2013-01-03 11:17:00,
2013-01-03 06:22:00,41.2,34.2,30.16,ENE,68,9.4,9.4,76,0.00,FEW,,0.00,WeatherDisplay:10.37,2013-01-03 11:22:00,
2013-01-03 06:27:00,41.2,34.2,30.17,East,90,12.7,12.7,76,0.00,FEW,,0.00,WeatherDisplay:10.37,2013-01-03 11:27:00,
2013-01-03 06:32:00,41.2,34.2,30.17,NNE,22,8.1,8.1,76,0.00,FEW,,0.00,WeatherDisplay:10.37,2013-01-03 11:32:00,
2013-01-03 06:37:00,41.2,34.2,30.18,NE,45,11.5,11.5,76,0.00,FEW,,0.00,WeatherDisplay:10.37,2013-01-03 11:37:00,
2013-01-03 06:42:00,41.2,34.2,30.18,East,90,10.4,10.4,76,0.00,FEW,,0.00,WeatherDisplay:10.37,2013-01-03 11:42:00,
2013-01-03 06:47:00,41.2,34.2,30.18,ENE,68,6.9,6.9,76,0.00,FEW,,0.00,WeatherDisplay:10.37,2013-01-03 11:47:00,
2013-01-03 06:52:00,41.2,34.2,30.19,East,90,7.1,7.1,76,0.00,FEW,,0.00,WeatherDisplay:10.37,2013-01-03 11:52:00,
2013-01-03 06:57:00,41.2,33.9,30.19,ENE,68,9.4,9.4,75,0.00,FEW,,0.00,WeatherDisplay:10.37,2013-01-03 11:57:00,
2013-01-03 07:03:00,41.2,33.9,30.20,NE,45,10.4,10.4,75,0.00,FEW,,0.00,WeatherDisplay:10.37,2013-01-03 12:03:00,
2013-01-03 07:08:00,41.2,33.9,30.20,NE,45,8.1,8.1,75,0.00,FEW,,0.00,WeatherDisplay:10.37,2013-01-03 12:08:00,
2013-01-03 07:13:00,41.2,33.9,30.19,NE,45,13.8,13.8,75,0.00,FEW,,0.00,WeatherDisplay:10.37,2013-01-03 12:13:00,
2013-01-03 07:18:00,41.2,33.5,30.19,East,90,9.2,9.2,74,0.00,OVC,,0.00,WeatherDisplay:10.37,2013-01-03 12:18:00,
2013-01-03 07:23:00,41.2,33.9,30.19,East,90,11.0,11.0,75,0.00,OVC,,0.00,WeatherDisplay:10.37,2013-01-03 12:23:00,
2013-01-03 07:28:00,41.4,33.7,30.19,ENE,68,11.5,11.5,74,0.00,OVC,,0.00,WeatherDisplay:10.37,2013-01-03 12:28:00,
2013-01-03 07:33:00,41.4,33.7,30.19,ESE,112,12.7,12.7,74,0.00,OVC,,0.00,WeatherDisplay:10.37,2013-01-03 12:33:00,
2013-01-03 07:38:00,41.4,33.7,30.19,NNE,22,11.5,11.5,74,0.00,OVC,,0.00,WeatherDisplay:10.37,2013-01-03 12:38:00,
2013-01-03 07:43:00,41.4,34.1,30.19,East,90,14.0,14.0,75,0.00,OVC,,0.00,WeatherDisplay:10.37,2013-01-03 12:43:00,
2013-01-03 07:48:00,41.2,33.9,30.20,East,90,7.1,7.1,75,0.00,OVC,,0.00,WeatherDisplay:10.37,2013-01-03 12:48:00,
2013-01-03 07:54:00,41.2,33.9,30.20,ENE,68,10.4,10.4,75,0.00,OVC,,0.00,WeatherDisplay:10.37,2013-01-03 12:54:00,
2013-01-03 07:59:00,40.8,34.1,30.20,ESE,112,11.5,11.5,77,0.00,OVC,,0.00,WeatherDisplay:10.37,2013-01-03 12:59:00,
2013-01-03 08:04:00,40.6,34.3,30.20,East,90,9.2,9.2,78,0.00,OVC,,0.00,WeatherDisplay:10.37,2013-01-03 13:04:00,
2013-01-03 08:09:00,40.3,34.6,30.20,ESE,112,9.2,9.2,80,0.00,OVC,,0.00,WeatherDisplay:10.37,2013-01-03 13:09:00,
2013-01-03 08:14:00,39.9,34.9,30.20,NE,45,6.9,6.9,82,0.00,OVC,,0.00,WeatherDisplay:10.37,2013-01-03 13:14:00,
2013-01-03 08:19:00,39.6,35.2,30.20,East,90,9.4,9.4,84,0.02,-RA,,0.02,WeatherDisplay:10.37,2013-01-03 13:19:00,
2013-01-03 08:24:00,39.6,35.5,30.20,ENE,58,5.0,9.0,85,0.00,-RA,,0.02,WeatherDisplay:10.37,2013-01-03 13:24:00,
2013-01-03 08:29:00,39.6,35.5,30.20,NNE,22,6.9,6.9,85,0.02,-RA,,0.02,WeatherDisplay:10.37,2013-01-03 13:29:00,
2013-01-03 08:34:00,39.6,35.5,30.20,East,86,3.0,9.0,85,0.00,-RA,,0.02,WeatherDisplay:10.37,2013-01-03 13:34:00,
2013-01-03 08:39:00,39.2,35.1,30.20,NE,46,5.0,9.0,85,0.00,-RA,,0.02,WeatherDisplay:10.37,2013-01-03 13:39:00,
2013-01-03 08:44:00,39.2,35.4,30.20,ENE,59,5.0,10.0,86,0.00,-RA,,0.02,WeatherDisplay:10.37,2013-01-03 13:44:00,
2013-01-03 08:49:00,39.2,35.4,30.20,ENE,67,6.0,10.0,86,0.00,-RA,,0.02,WeatherDisplay:10.37,2013-01-03 13:49:00,
2013-01-03 08:54:00,39.4,35.6,30.20,East,90,8.1,8.1,86,0.02,-RA,,0.02,WeatherDisplay:10.37,2013-01-03 13:54:00,
2013-01-03 08:59:00,39.4,35.6,30.20,ENE,68,10.4,10.4,86,0.02,-RA,,0.02,WeatherDisplay:10.37,2013-01-03 13:59:00,
2013-01-03 09:04:00,39.6,35.8,30.20,ESE,112,6.9,6.9,86,0.02,-RA,,0.02,WeatherDisplay:10.37,2013-01-03 14:04:00,
2013-01-03 09:09:00,39.7,35.9,30.20,East,90,7.1,7.1,86,0.02,-RA,,0.02,WeatherDisplay:10.37,2013-01-03 14:09:00,
2013-01-03 09:15:00,39.7,36.1,30.20,ESE,112,6.9,6.9,87,0.02,-RA,,0.02,WeatherDisplay:10.37,2013-01-03 14:15:00,
2013-01-03 09:20:00,39.7,36.1,30.20,East,90,6.9,6.9,87,0.00,-RA,,0.02,WeatherDisplay:10.37,2013-01-03 14:20:00,
2013-01-03 09:25:00,40.1,36.5,30.20,ENE,68,4.0,4.0,87,0.01,-RA,,0.03,WeatherDisplay:10.37,2013-01-03 14:25:00,
2013-01-03 09:30:00,40.1,36.5,30.20,SE,135,8.1,8.1,87,0.01,-RA,,0.03,WeatherDisplay:10.37,2013-01-03 14:30:00,
2013-01-03 09:35:00,40.1,36.5,30.20,SSW,202,9.2,9.2,87,0.01,-RA,,0.03,WeatherDisplay:10.37,2013-01-03 14:35:00,
2013-01-03 09:40:00,40.5,36.9,30.20,ENE,68,4.6,4.6,87,0.01,-RA,,0.03,WeatherDisplay:10.37,2013-01-03 14:40:00,
2013-01-03 09:45:00,40.5,36.9,30.20,East,90,4.0,4.0,87,0.01,-RA,,0.03,WeatherDisplay:10.37,2013-01-03 14:45:00,
2013-01-03 09:50:00,40.6,37.3,30.21,East,90,4.8,4.8,88,0.02,-RA,,0.04,WeatherDisplay:10.37,2013-01-03 14:50:00,
2013-01-03 09:55:00,40.6,37.3,30.21,East,90,5.6,5.6,88,0.02,-RA,,0.04,WeatherDisplay:10.37,2013-01-03 14:55:00,
2013-01-03 10:01:00,41.0,37.7,30.21,NNW,338,3.5,3.5,88,0.02,-RA,,0.04,WeatherDisplay:10.37,2013-01-03 15:01:00,
2013-01-03 10:06:00,41.0,37.7,30.22,NE,45,6.3,6.3,88,0.02,-RA,,0.04,WeatherDisplay:10.37,2013-01-03 15:06:00,
2013-01-03 10:11:00,41.0,37.7,30.22,NE,45,2.3,2.3,88,0.02,-RA,,0.04,WeatherDisplay:10.37,2013-01-03 15:11:00,
2013-01-03 10:16:00,41.2,37.9,30.22,NNE,22,3.5,3.5,88,0.02,-RA,,0.04,WeatherDisplay:10.37,2013-01-03 15:16:00,
2013-01-03 10:21:00,41.5,38.5,30.22,NNE,22,5.6,5.6,89,0.02,-RA,,0.04,WeatherDisplay:10.37,2013-01-03 15:21:00,
2013-01-03 10:26:00,41.5,38.5,30.23,ENE,68,8.1,8.1,89,0.01,-RA,,0.04,WeatherDisplay:10.37,2013-01-03 15:26:00,
2013-01-03 10:31:00,41.4,38.4,30.23,East,90,6.9,6.9,89,0.01,-RA,,0.04,WeatherDisplay:10.37,2013-01-03 15:31:00,
2013-01-03 10:36:00,41.4,38.4,30.23,ESE,112,5.8,5.8,89,0.02,-RA,,0.05,WeatherDisplay:10.37,2013-01-03 15:36:00,
2013-01-03 10:41:00,41.5,38.5,30.22,NE,45,3.5,3.5,89,0.02,-RA,,0.05,WeatherDisplay:10.37,2013-01-03 15:41:00,
2013-01-03 10:46:00,41.5,38.5,30.22,East,90,3.5,3.5,89,0.02,-RA,,0.05,WeatherDisplay:10.37,2013-01-03 15:46:00,
2013-01-03 10:51:00,41.5,38.5,30.22,NNE,22,4.6,4.6,89,0.01,-RA,,0.05,WeatherDisplay:10.37,2013-01-03 15:51:00,
2013-01-03 10:56:00,41.5,38.5,30.22,NE,45,6.9,6.9,89,0.01,-RA,,0.05,WeatherDisplay:10.37,2013-01-03 15:56:00,
2013-01-03 11:01:00,41.5,38.5,30.22,North,360,6.9,6.9,89,0.02,-RA,,0.06,WeatherDisplay:10.37,2013-01-03 16:01:00,
2013-01-03 11:06:00,41.5,38.5,30.22,East,90,7.9,7.9,89,0.02,-RA,,0.06,WeatherDisplay:10.37,2013-01-03 16:06:00,
2013-01-03 11:11:00,41.5,38.5,30.22,NW,315,5.8,5.8,89,0.02,-RA,,0.06,WeatherDisplay:10.37,2013-01-03 16:11:00,
2013-01-03 11:17:00,41.7,38.4,30.21,East,90,12.7,12.7,88,0.02,-RA,,0.06,WeatherDisplay:10.37,2013-01-03 16:17:00,
2013-01-03 11:22:00,41.7,38.4,30.21,NNE,22,4.8,4.8,88,0.02,-RA,,0.06,WeatherDisplay:10.37,2013-01-03 16:22:00,
2013-01-03 11:27:00,41.7,38.4,30.20,NNE,22,6.9,6.9,88,0.02,-RA,,0.06,WeatherDisplay:10.37,2013-01-03 16:27:00,
2013-01-03 11:32:00,41.7,38.4,30.20,East,90,11.5,11.5,88,0.02,-RA,,0.06,WeatherDisplay:10.37,2013-01-03 16:32:00,
2013-01-03 11:37:00,41.7,38.4,30.19,NE,45,10.4,10.4,88,0.01,-RA,,0.06,WeatherDisplay:10.37,2013-01-03 16:37:00,
2013-01-03 11:42:00,41.5,37.6,30.19,East,90,18.7,18.7,86,0.01,-RA,,0.07,WeatherDisplay:10.37,2013-01-03 16:42:00,
2013-01-03 11:47:00,41.5,37.6,30.19,ENE,68,11.5,11.5,86,0.02,-RA,,0.07,WeatherDisplay:10.37,2013-01-03 16:47:00,
2013-01-03 11:52:00,41.7,37.8,30.17,East,90,16.4,16.4,86,0.02,-RA,,0.07,WeatherDisplay:10.37,2013-01-03 16:52:00,
2013-01-03 11:57:00,41.5,37.6,30.17,NNE,22,9.2,9.2,86,0.01,-RA,,0.07,WeatherDisplay:10.37,2013-01-03 16:57:00,
2013-01-03 12:02:00,41.7,37.8,30.17,NNE,22,10.2,10.2,86,0.01,-RA,,0.07,WeatherDisplay:10.37,2013-01-03 17:02:00,
2013-01-03 12:08:00,41.7,37.8,30.17,NNE,22,9.2,9.2,86,0.01,-RA,,0.07,WeatherDisplay:10.37,2013-01-03 17:08:00,
2013-01-03 12:13:00,41.7,37.2,30.17,ENE,68,11.5,11.5,84,0.01,-RA,,0.07,WeatherDisplay:10.37,2013-01-03 17:13:00,
2013-01-03 12:18:00,41.9,38.0,30.17,ENE,68,9.2,9.2,86,0.01,-RA,,0.07,WeatherDisplay:10.37,2013-01-03 17:18:00,
2013-01-03 12:23:00,41.7,37.5,30.17,East,90,13.8,13.8,85,0.01,-RA,,0.07,WeatherDisplay:10.37,2013-01-03 17:23:00,
2013-01-03 12:28:00,41.5,37.3,30.16,East,90,10.2,10.2,85,0.01,-RA,,0.07,WeatherDisplay:10.37,2013-01-03 17:28:00,
2013-01-03 12:33:00,41.5,37.3,30.16,NNW,338,6.3,6.3,85,0.01,-RA,,0.07,WeatherDisplay:10.37,2013-01-03 17:33:00,
2013-01-03 12:38:00,41.5,37.3,30.16,East,90,6.9,6.9,85,0.01,-RA,,0.07,WeatherDisplay:10.37,2013-01-03 17:38:00,
2013-01-03 12:43:00,41.5,37.3,30.16,ENE,68,13.8,13.8,85,0.00,-RA,,0.07,WeatherDisplay:10.37,2013-01-03 17:43:00,
2013-01-03 12:48:00,41.5,37.3,30.16,East,90,10.4,10.4,85,0.00,-RA,,0.07,WeatherDisplay:10.37,2013-01-03 17:48:00,
2013-01-03 12:53:00,41.5,37.3,30.15,NE,45,4.6,4.6,85,0.00,-RA,,0.07,WeatherDisplay:10.37,2013-01-03 17:53:00,
2013-01-03 12:58:00,41.5,37.3,30.15,ENE,68,6.9,6.9,85,0.00,-RA,,0.07,WeatherDisplay:10.37,2013-01-03 17:58:00,
2013-01-03 13:04:00,41.5,37.3,30.15,East,90,11.5,11.5,85,0.00,-RA,,0.07,WeatherDisplay:10.37,2013-01-03 18:04:00,
2013-01-03 13:09:00,41.9,37.7,30.15,West,270,6.9,6.9,85,0.00,-RA,,0.07,WeatherDisplay:10.37,2013-01-03 18:09:00,
2013-01-03 13:14:00,42.1,37.9,30.16,North,360,6.9,6.9,85,0.00,-RA,,0.07,WeatherDisplay:10.37,2013-01-03 18:14:00,
2013-01-03 13:19:00,42.3,37.8,30.16,ENE,68,10.4,10.4,84,0.00,-RA,,0.07,WeatherDisplay:10.37,2013-01-03 18:19:00,
2013-01-03 13:24:00,42.1,37.3,30.16,NE,45,11.7,11.7,83,0.00,-RA,,0.07,WeatherDisplay:10.37,2013-01-03 18:24:00,
2013-01-03 13:29:00,42.1,37.3,30.14,ESE,112,9.2,9.2,83,0.00,-RA,,0.07,WeatherDisplay:10.37,2013-01-03 18:29:00,
2013-01-03 13:34:00,42.3,37.8,30.14,NE,43,3.0,9.0,84,0.00,-RA,,0.07,WeatherDisplay:10.37,2013-01-03 18:34:00,
2013-01-03 13:39:00,42.6,38.1,30.15,NE,37,5.0,9.0,84,0.00,-RA,,0.07,WeatherDisplay:10.37,2013-01-03 18:39:00,
2013-01-03 13:44:00,42.8,38.0,30.15,NNE,20,3.0,7.0,83,0.00,-RA,,0.07,WeatherDisplay:10.37,2013-01-03 18:44:00,
2013-01-03 13:49:00,42.8,38.3,30.14,NE,38,3.0,7.0,84,0.00,-RA,,0.07,WeatherDisplay:10.37,2013-01-03 18:49:00,
2013-01-03 13:54:00,42.8,38.3,30.14,NE,36,5.0,7.0,84,0.00,-RA,,0.07,WeatherDisplay:10.37,2013-01-03 18:54:00,
2013-01-03 13:59:00,43.0,38.2,30.14,North,6,6.0,7.0,83,0.00,-RA,,0.07,WeatherDisplay:10.37,2013-01-03 18:59:00,
2013-01-03 14:04:00,43.2,38.4,30.15,North,6,5.0,8.0,83,0.00,-RA,,0.07,WeatherDisplay:10.37,2013-01-03 19:04:00,
2013-01-03 14:09:00,42.8,37.4,30.15,ENE,77,7.0,12.0,81,0.00,-RA,,0.07,WeatherDisplay:10.37,2013-01-03 19:09:00,
2013-01-03 14:14:00,42.8,37.1,30.15,East,86,7.0,12.0,80,0.00,-RA,,0.07,WeatherDisplay:10.37,2013-01-03 19:14:00,
2013-01-03 14:51:00,42.6,36.9,30.16,ESE,112,6.9,6.9,80,0.00,OVC,,0.07,WeatherDisplay:10.37,2013-01-03 19:51:00,
2013-01-03 14:56:00,42.6,36.9,30.16,NNW,338,5.8,5.8,80,0.00,OVC,,0.07,WeatherDisplay:10.37,2013-01-03 19:56:00,
2013-01-03 15:01:00,42.6,37.2,30.16,NNW,338,4.6,4.6,81,0.00,OVC,,0.07,WeatherDisplay:10.37,2013-01-03 20:01:00,
2013-01-03 15:07:00,42.6,36.9,30.16,NE,45,4.6,4.6,80,0.00,OVC,,0.07,WeatherDisplay:10.37,2013-01-03 20:07:00,
2013-01-03 15:12:00,42.6,37.2,30.16,East,90,5.6,5.6,81,0.00,OVC,,0.07,WeatherDisplay:10.37,2013-01-03 20:12:00,
2013-01-03 15:17:00,42.6,37.2,30.17,East,90,3.5,3.5,81,0.00,OVC,,0.07,WeatherDisplay:10.37,2013-01-03 20:17:00,
2013-01-03 15:22:00,42.6,36.9,30.17,NE,45,5.8,5.8,80,0.00,OVC,,0.07,WeatherDisplay:10.37,2013-01-03 20:22:00,
2013-01-03 15:27:00,42.6,36.2,30.16,ENE,68,8.1,8.1,78,0.00,OVC,,0.07,WeatherDisplay:10.37,2013-01-03 20:27:00,
2013-01-03 15:32:00,42.8,36.7,30.16,NNE,22,4.0,4.0,79,0.00,OVC,,0.07,WeatherDisplay:10.37,2013-01-03 20:32:00,
2013-01-03 15:37:00,42.8,36.7,30.17,SE,135,10.7,10.7,79,0.00,OVC,,0.07,WeatherDisplay:10.37,2013-01-03 20:37:00,
2013-01-03 15:42:00,43.0,36.9,30.17,East,90,13.8,13.8,79,0.00,OVC,,0.07,WeatherDisplay:10.37,2013-01-03 20:42:00,
2013-01-03 15:47:00,42.8,36.4,30.17,NE,45,5.8,5.8,78,0.00,OVC,,0.07,WeatherDisplay:10.37,2013-01-03 20:47:00,
2013-01-03 15:52:00,42.8,36.4,30.17,NE,45,4.8,4.8,78,0.00,OVC,,0.07,WeatherDisplay:10.37,2013-01-03 20:52:00,
2013-01-03 15:58:00,42.8,36.7,30.17,SE,135,6.0,6.0,79,0.00,OVC,,0.07,WeatherDisplay:10.37,2013-01-03 20:58:00,
2013-01-03 16:03:00,42.8,36.4,30.17,NE,45,4.6,4.6,78,0.00,OVC,,0.07,WeatherDisplay:10.37,2013-01-03 21:03:00,
2013-01-03 16:08:00,42.8,36.7,30.17,East,90,5.8,5.8,79,0.00,OVC,,0.07,WeatherDisplay:10.37,2013-01-03 21:08:00,
2013-01-03 16:13:00,42.8,36.7,30.17,NW,315,4.6,4.6,79,0.00,OVC,,0.07,WeatherDisplay:10.37,2013-01-03 21:13:00,
2013-01-03 16:18:00,42.8,36.7,30.18,West,270,3.7,3.7,79,0.00,OVC,,0.07,WeatherDisplay:10.37,2013-01-03 21:18:00,
2013-01-03 16:23:00,42.8,36.7,30.18,NE,45,4.0,4.0,79,0.00,OVC,,0.07,WeatherDisplay:10.37,2013-01-03 21:23:00,
2013-01-03 16:28:00,42.8,36.4,30.18,NE,45,7.1,7.1,78,0.00,OVC,,0.07,WeatherDisplay:10.37,2013-01-03 21:28:00,
2013-01-03 16:33:00,42.6,36.2,30.18,SSW,202,5.8,5.8,78,0.00,OVC,,0.07,WeatherDisplay:10.37,2013-01-03 21:33:00,
2013-01-03 16:38:00,42.6,35.9,30.17,NE,45,5.8,5.8,77,0.00,OVC,,0.07,WeatherDisplay:10.37,2013-01-03 21:38:00,
2013-01-03 16:44:00,42.6,36.5,30.17,NNE,19,2.0,4.0,79,0.00,OVC,,0.07,WeatherDisplay:10.37,2013-01-03 21:44:00,
2013-01-03 16:49:00,42.4,36.3,30.18,East,90,3.5,3.6,79,0.00,OVC,,0.07,WeatherDisplay:10.37,2013-01-03 21:49:00,
2013-01-03 16:54:00,42.3,36.3,30.18,NNE,22,6.9,6.9,79,0.00,OVC,,0.07,WeatherDisplay:10.37,2013-01-03 21:54:00,
2013-01-03 16:59:00,42.3,36.6,30.18,NNW,338,2.5,2.5,80,0.00,OVC,,0.07,WeatherDisplay:10.37,2013-01-03 21:59:00,
2013-01-03 17:04:00,42.3,36.3,30.17,NNW,338,4.6,4.6,79,0.00,OVC,,0.07,WeatherDisplay:10.37,2013-01-03 22:04:00,
2013-01-03 17:10:00,42.3,36.6,30.17,North,360,4.8,4.8,80,0.00,OVC,,0.07,WeatherDisplay:10.37,2013-01-03 22:10:00,
2013-01-03 17:15:00,42.3,36.3,30.18,NW,315,6.9,6.9,79,0.00,OVC,,0.07,WeatherDisplay:10.37,2013-01-03 22:15:00,
2013-01-03 17:20:00,42.3,36.3,30.18,East,90,3.5,3.5,79,0.00,BKN,,0.07,WeatherDisplay:10.37,2013-01-03 22:20:00,
2013-01-03 17:25:00,42.3,36.3,30.18,ESE,112,5.6,5.6,79,0.00,BKN,,0.07,WeatherDisplay:10.37,2013-01-03 22:25:00,
2013-01-03 17:30:00,42.3,36.3,30.18,NNE,22,5.8,5.8,79,0.00,BKN,,0.07,WeatherDisplay:10.37,2013-01-03 22:30:00,
2013-01-03 17:35:00,42.3,35.9,30.18,West,270,5.8,5.8,78,0.00,BKN,,0.07,WeatherDisplay:10.37,2013-01-03 22:35:00,
2013-01-03 17:40:00,42.3,36.3,30.19,West,270,6.9,6.9,79,0.00,BKN,,0.07,WeatherDisplay:10.37,2013-01-03 22:40:00,
2013-01-03 17:45:00,42.3,35.9,30.19,West,270,6.0,6.0,78,0.00,BKN,,0.07,WeatherDisplay:10.37,2013-01-03 22:45:00,
2013-01-03 17:50:00,42.3,36.3,30.21,NW,315,6.9,6.9,79,0.00,BKN,,0.07,WeatherDisplay:10.37,2013-01-03 22:50:00,
2013-01-03 17:55:00,42.3,35.9,30.21,NNE,22,4.6,4.6,78,0.00,BKN,,0.07,WeatherDisplay:10.37,2013-01-03 22:55:00,
2013-01-03 18:01:00,42.1,36.4,30.21,NNE,22,6.9,6.9,80,0.00,BKN,,0.07,WeatherDisplay:10.37,2013-01-03 23:01:00,
2013-01-03 18:06:00,42.1,36.1,30.20,NNE,22,6.9,6.9,79,0.00,BKN,,0.07,WeatherDisplay:10.37,2013-01-03 23:06:00,
2013-01-03 18:11:00,42.1,36.1,30.20,North,360,4.6,4.6,79,0.00,BKN,,0.07,WeatherDisplay:10.37,2013-01-03 23:11:00,
2013-01-03 18:16:00,42.1,36.1,30.22,NE,45,6.9,6.9,79,0.00,OVC,,0.07,WeatherDisplay:10.37,2013-01-03 23:16:00,
2013-01-03 18:21:00,42.1,36.1,30.22,NW,315,3.5,3.5,79,0.00,OVC,,0.07,WeatherDisplay:10.37,2013-01-03 23:21:00,
2013-01-03 18:26:00,42.1,36.1,30.23,SE,135,7.2,7.2,79,0.00,OVC,,0.07,WeatherDisplay:10.37,2013-01-03 23:26:00,
2013-01-03 18:31:00,41.9,35.5,30.23,NNE,22,6.9,6.9,78,0.00,OVC,,0.07,WeatherDisplay:10.37,2013-01-03 23:31:00,
2013-01-03 18:36:00,41.9,35.9,30.23,NNW,338,4.8,4.8,79,0.00,OVC,,0.07,WeatherDisplay:10.37,2013-01-03 23:36:00,
2013-01-03 18:41:00,41.9,35.9,30.22,NNW,338,6.9,6.9,79,0.00,OVC,,0.07,WeatherDisplay:10.37,2013-01-03 23:41:00,
2013-01-03 18:46:00,41.7,35.7,30.22,NW,315,6.9,6.9,79,0.00,OVC,,0.07,WeatherDisplay:10.37,2013-01-03 23:46:00,
2013-01-03 18:52:00,41.7,36.0,30.22,WNW,292,4.9,4.9,80,0.00,OVC,,0.07,WeatherDisplay:10.37,2013-01-03 23:52:00,
2013-01-03 18:57:00,41.7,36.0,30.22,NNE,22,3.5,3.5,80,0.00,OVC,,0.07,WeatherDisplay:10.37,2013-01-03 23:57:00,
2013-01-03 19:02:00,41.7,35.7,30.23,NE,45,4.6,4.6,79,0.00,OVC,,0.07,WeatherDisplay:10.37,2013-01-04 00:02:00,
2013-01-03 19:07:00,41.5,35.5,30.23,NNW,338,6.9,6.9,79,0.00,OVC,,0.07,WeatherDisplay:10.37,2013-01-04 00:07:00,
2013-01-03 19:12:00,41.5,35.8,30.23,NNE,22,4.8,4.8,80,0.00,OVC,,0.07,WeatherDisplay:10.37,2013-01-04 00:12:00,
2013-01-03 19:17:00,41.2,35.5,30.24,NW,315,5.8,5.8,80,0.00,OVC,,0.07,WeatherDisplay:10.37,2013-01-04 00:17:00,
2013-01-03 19:22:00,41.2,35.2,30.24,WNW,292,4.8,4.8,79,0.00,OVC,,0.07,WeatherDisplay:10.37,2013-01-04 00:22:00,
2013-01-03 19:27:00,41.2,35.2,30.23,NW,315,4.8,4.8,79,0.00,OVC,,0.07,WeatherDisplay:10.37,2013-01-04 00:27:00,
2013-01-03 19:32:00,41.2,35.2,30.23,NNW,338,6.9,6.9,79,0.00,OVC,,0.07,WeatherDisplay:10.37,2013-01-04 00:32:00,
2013-01-03 19:37:00,41.2,35.5,30.24,NNE,22,4.6,4.6,80,0.00,OVC,,0.07,WeatherDisplay:10.37,2013-01-04 00:37:00,
2013-01-03 19:43:00,41.2,35.5,30.24,NNW,338,3.5,3.5,80,0.00,OVC,,0.07,WeatherDisplay:10.37,2013-01-04 00:43:00,
2013-01-03 19:48:00,41.2,35.5,30.24,NNE,22,5.8,5.8,80,0.00,OVC,,0.07,WeatherDisplay:10.37,2013-01-04 00:48:00,
2013-01-03 19:53:00,41.0,35.3,30.24,NNE,22,5.8,5.8,80,0.00,OVC,,0.07,WeatherDisplay:10.37,2013-01-04 00:53:00,
2013-01-03 19:58:00,41.0,35.3,30.24,NNW,338,5.8,5.8,80,0.00,OVC,,0.07,WeatherDisplay:10.37,2013-01-04 00:58:00,
2013-01-03 20:03:00,40.8,35.4,30.23,West,270,7.2,7.2,81,0.00,OVC,,0.07,WeatherDisplay:10.37,2013-01-04 01:03:00,
2013-01-03 20:08:00,40.8,35.1,30.23,NE,45,6.9,6.9,80,0.00,OVC,,0.07,WeatherDisplay:10.37,2013-01-04 01:08:00,
2013-01-03 20:13:00,40.6,35.2,30.24,NE,45,5.8,5.8,81,0.00,OVC,,0.07,WeatherDisplay:10.37,2013-01-04 01:13:00,
2013-01-03 20:18:00,40.6,35.2,30.24,NNW,338,5.8,5.8,81,0.00,OVC,,0.07,WeatherDisplay:10.37,2013-01-04 01:18:00,
2013-01-03 20:23:00,40.5,35.1,30.24,NW,315,3.5,3.6,81,0.00,OVC,,0.07,WeatherDisplay:10.37,2013-01-04 01:23:00,
2013-01-03 20:28:00,40.3,34.9,30.24,ENE,68,3.5,3.5,81,0.00,OVC,,0.07,WeatherDisplay:10.37,2013-01-04 01:28:00,
2013-01-03 20:34:00,40.1,35.0,30.24,NNE,22,1.1,0.0,82,0.00,OVC,,0.07,WeatherDisplay:10.37,2013-01-04 01:34:00,
2013-01-03 20:39:00,39.9,34.9,30.23,NE,45,1.7,1.7,82,0.00,OVC,,0.07,WeatherDisplay:10.37,2013-01-04 01:39:00,
2013-01-03 20:44:00,39.9,34.9,30.23,North,360,3.5,3.5,82,0.00,OVC,,0.07,WeatherDisplay:10.37,2013-01-04 01:44:00,
2013-01-03 20:49:00,39.9,34.9,30.23,NW,315,3.5,3.5,82,0.00,OVC,,0.07,WeatherDisplay:10.37,2013-01-04 01:49:00,
2013-01-03 20:54:00,39.7,35.0,30.23,ENE,68,3.5,3.5,83,0.00,OVC,,0.07,WeatherDisplay:10.37,2013-01-04 01:54:00,
2013-01-03 20:59:00,39.6,34.9,30.23,NE,45,3.5,3.5,83,0.00,OVC,,0.07,WeatherDisplay:10.37,2013-01-04 01:59:00,
2013-01-03 21:04:00,39.6,34.9,30.24,NNW,348,2.0,4.0,83,0.00,OVC,,0.07,WeatherDisplay:10.37,2013-01-04 02:04:00,
2013-01-03 21:09:00,39.6,34.9,30.24,NNW,337,2.0,6.0,83,0.00,OVC,,0.07,WeatherDisplay:10.37,2013-01-04 02:09:00,
2013-01-03 21:14:00,39.4,35.0,30.24,West,270,3.5,3.5,84,0.00,OVC,,0.07,WeatherDisplay:10.37,2013-01-04 02:14:00,
2013-01-03 21:19:00,39.2,34.8,30.24,NW,307,2.0,4.0,84,0.00,CLR,,0.07,WeatherDisplay:10.37,2013-01-04 02:19:00,
2013-01-03 21:24:00,39.2,34.8,30.24,North,354,3.0,6.0,84,0.00,CLR,,0.07,WeatherDisplay:10.37,2013-01-04 02:24:00,
2013-01-03 21:29:00,39.2,34.8,30.24,NNE,22,6.9,6.9,84,0.00,CLR,,0.07,WeatherDisplay:10.37,2013-01-04 02:29:00,
2013-01-03 21:34:00,39.2,34.8,30.24,North,349,2.0,6.0,84,0.00,CLR,,0.07,WeatherDisplay:10.37,2013-01-04 02:34:00,
2013-01-03 21:39:00,39.2,34.8,30.25,NNW,339,3.0,6.0,84,0.00,CLR,,0.07,WeatherDisplay:10.37,2013-01-04 02:39:00,
2013-01-03 21:44:00,39.2,34.8,30.25,NNW,346,2.0,7.0,84,0.00,CLR,,0.07,WeatherDisplay:10.37,2013-01-04 02:44:00,
2013-01-03 21:49:00,39.2,34.8,30.25,NNE,15,2.0,6.0,84,0.00,CLR,,0.07,WeatherDisplay:10.37,2013-01-04 02:49:00,
2013-01-03 21:54:00,39.0,34.6,30.25,North,1,2.0,4.0,84,0.00,CLR,,0.07,WeatherDisplay:10.37,2013-01-04 02:54:00,
2013-01-03 21:59:00,38.8,34.4,30.25,NNW,338,1.1,0.0,84,0.00,CLR,,0.07,WeatherDisplay:10.37,2013-01-04 02:59:00,
2013-01-03 22:04:00,38.5,34.4,30.25,NNW,340,2.0,3.0,85,0.00,CLR,,0.07,WeatherDisplay:10.37,2013-01-04 03:04:00,
2013-01-03 22:09:00,38.5,34.4,30.25,NNW,327,0.0,2.0,85,0.00,CLR,,0.07,WeatherDisplay:10.37,2013-01-04 03:09:00,
2013-01-03 22:14:00,38.4,34.3,30.24,NW,315,0.0,2.0,85,0.00,CLR,,0.07,WeatherDisplay:10.37,2013-01-04 03:14:00,
2013-01-03 22:19:00,38.3,34.2,30.24,NW,315,2.0,3.0,85,0.00,CLR,,0.07,WeatherDisplay:10.37,2013-01-04 03:19:00,
2013-01-03 22:24:00,38.1,34.0,30.24,NW,315,1.0,2.0,85,0.00,CLR,,0.07,WeatherDisplay:10.37,2013-01-04 03:24:00,
2013-01-03 22:29:00,37.9,34.1,30.24,North,360,1.1,1.1,86,0.00,CLR,,0.07,WeatherDisplay:10.37,2013-01-04 03:29:00,
2013-01-03 22:34:00,37.8,34.0,30.24,NNW,327,2.0,4.0,86,0.00,CLR,,0.07,WeatherDisplay:10.37,2013-01-04 03:34:00,
2013-01-03 22:39:00,37.4,33.9,30.25,WNW,292,1.0,2.0,87,0.00,CLR,,0.07,WeatherDisplay:10.37,2013-01-04 03:39:00,
2013-01-03 22:44:00,37.0,33.5,30.25,WNW,292,2.0,3.0,87,0.00,CLR,,0.07,WeatherDisplay:10.37,2013-01-04 03:44:00,
2013-01-03 22:49:00,36.9,33.7,30.25,WNW,292,1.0,2.0,88,0.00,CLR,,0.07,WeatherDisplay:10.37,2013-01-04 03:49:00,
2013-01-03 22:54:00,36.9,33.7,30.26,WNW,292,0.0,0.0,88,0.00,CLR,,0.07,WeatherDisplay:10.37,2013-01-04 03:54:00,
2013-01-03 22:59:00,36.7,33.5,30.26,WNW,292,0.0,0.0,88,0.00,CLR,,0.07,WeatherDisplay:10.37,2013-01-04 03:59:00,
2013-01-03 23:04:00,36.3,33.1,30.26,WNW,292,0.0,0.0,88,0.00,CLR,,0.07,WeatherDisplay:10.37,2013-01-04 04:04:00,
2013-01-03 23:09:00,36.0,32.8,30.26,WNW,292,0.0,0.0,88,0.00,CLR,,0.07,WeatherDisplay:10.37,2013-01-04 04:09:00,
2013-01-03 23:15:00,35.6,32.4,30.26,WNW,292,0.0,0.0,88,0.00,CLR,,0.07,WeatherDisplay:10.37,2013-01-04 04:15:00,
2013-01-03 23:20:00,35.2,32.0,30.26,WNW,292,0.0,0.0,88,0.00,CLR,,0.07,WeatherDisplay:10.37,2013-01-04 04:20:00,
2013-01-03 23:25:00,35.1,32.2,30.26,WNW,292,0.0,0.0,89,0.00,CLR,,0.07,WeatherDisplay:10.37,2013-01-04 04:25:00,
2013-01-03 23:30:00,34.7,31.8,30.26,WNW,292,0.0,0.0,89,0.00,CLR,,0.07,WeatherDisplay:10.37,2013-01-04 04:30:00,
2013-01-03 23:35:00,34.5,31.6,30.26,WNW,292,0.0,0.0,89,0.00,CLR,,0.07,WeatherDisplay:10.37,2013-01-04 04:35:00,
2013-01-03 23:40:00,34.3,31.7,30.26,WNW,292,0.0,0.0,90,0.00,CLR,,0.07,WeatherDisplay:10.37,2013-01-04 04:40:00,
2013-01-03 23:45:00,34.2,31.6,30.26,WNW,292,0.0,0.0,90,0.00,CLR,,0.07,WeatherDisplay:10.37,2013-01-04 04:45:00,
2013-01-03 23:50:00,34.0,31.4,30.26,WNW,292,0.0,0.0,90,0.00,CLR,,0.07,WeatherDisplay:10.37,2013-01-04 04:50:00,
2013-01-03 23:55:00,33.8,31.2,30.26,WNW,292,0.0,0.0,90,0.00,CLR,,0.07,WeatherDisplay:10.37,2013-01-04 04:55:00,